Regional Weather Roundup
Issued by NWS

Home | Current Version | Previous Version | Text Only | Print | Product List | Glossary On
Versions: 1 2 3 4 5 6 7 8 9 10 11 12 13 14 15 16 17 18 19 20 21 22 23 24 25 26 27 28 29 30 31 32 33 34 35 36 37 38 39 40 41 42 43 44 45 46 47 48 49 50
000
ASUS45 KPSR 021310
RWRAZ

ARIZONA REGIONAL HOURLY WEATHER ROUNDUP
NATIONAL WEATHER SERVICE PHOENIX AZ
600 AM MST THU OCT 02 2014

NOTE: FAIR INDICATES FEW OR NO CLOUDS BELOW 12,000 FEET WITH NO
SIGNIFICANT WEATHER AND/OR OBSTRUCTIONS TO VISIBILITY.

AZZ001>003-036-021400-
NORTHWEST ARIZONA

CITY           SKY/WX    TMP DP  RH WIND       PRES   REMARKS
BULLHEAD CITY  CLEAR     72  28  20 N12       30.06R
KINGMAN        CLEAR     45  32  60 SE10      30.17R
$$

AZZ004>008-015-016-018-021400-
NORTH CENTRAL ARIZONA

CITY           SKY/WX    TMP DP  RH WIND       PRES   REMARKS
GRAND CANYON   PTCLDY    29  23  78 SE5       30.29R WCI  24
PRESCOTT       CLEAR     42  29  59 SW5       30.20R
FLAGSTAFF      PTCLDY    39  21  48 E10       30.28R WCI  32
PAYSON         CLEAR     52  25  35 NE12      30.19S
PAGE           CLEAR     48  26  42 SW3       30.24R
$$

AZZ009>014-017-021400-
NORTHEAST ARIZONA

CITY           SKY/WX    TMP DP  RH WIND       PRES   REMARKS
WINSLOW        CLEAR     45  27  49 N5        30.25R
SAINT JOHNS    CLEAR     43  36  76 CALM      30.23R
WINDOW ROCK    CLEAR     38  24  57 CALM      30.26R
SHOW LOW       CLEAR     37  28  70 CALM      30.28S
$$

AZZ023-021400-
GREATER PHOENIX AREA

CITY           SKY/WX    TMP DP  RH WIND       PRES   REMARKS
PHOENIX        CLEAR     70  51  51 SE6       29.94R
BUCKEYE          N/A     66  37  34 N9        29.96R
GLENDALE       CLEAR     73  36  25 NW9       29.96
LUKE AFB       CLEAR     66  45  45 N8        29.95R
DEER VALLEY    CLEAR     69  37  30 N8        29.96R
SCOTTSDALE     CLEAR     65  48  54 W3        29.97R
MESA-FALCON    CLEAR     70  41  35 N12       29.95
MESA-GATEWAY   CLEAR     61  50  67 E5        29.97R
CHANDLER       CLEAR     64  54  68 NE9       29.86
$$

AZZ027-028-021400-
SOUTHWEST MARICOPA COUNTY AND PINAL COUNTY

CITY           SKY/WX    TMP DP  RH WIND       PRES   REMARKS
CASA GRANDE    CLEAR     61  43  51 CALM      29.96R
$$

AZZ503-504-507>509-021400-
SOUTHEAST ARIZONA

CITY           SKY/WX    TMP DP  RH WIND       PRES   REMARKS
TUCSON         CLEAR     61  43  51 SE6       30.02R
DAVIS-MONTHAN  CLEAR     58  41  54 S2        30.01R
RYAN FIELD       N/A     57  39  51 CALM      30.02
NOGALES        CLEAR     48  43  82 CALM      30.07R
SIERRA VISTA   CLEAR     54  39  58 SW6       30.11R
DOUGLAS        CLEAR     49  41  74 E5        30.10R
SAFFORD        CLEAR     56  38  50 CALM      30.04R
$$

AZZ020-021-025-026-031-021400-
SOUTHWEST ARIZONA

CITY           SKY/WX    TMP DP  RH WIND       PRES   REMARKS
YUMA           CLEAR     79  28  15 N15       29.91R
$$

CAZ031-033-041-043-047-048-061-021400-
SOUTHERN CALIFORNIA

CITY           SKY/WX    TMP DP  RH WIND       PRES   REMARKS
DOWNTOWN L.A.  CLEAR     64  58  80 CALM      29.90R
L.A. AIRPORT   CLEAR     65  59  81 CALM      29.91R
SAN DIEGO      CLEAR     66  60  81 CALM      29.90R
BURBANK        CLEAR     61  49  64 CALM      29.93R
ONTARIO        CLEAR     60  42  51 NW7       29.94R
RIVERSIDE      CLEAR     62  52  69 E6        29.96R
PALM SPRINGS   CLEAR     76  23  14 N5        29.98R
EL CENTRO NAS  CLEAR     65  43  44 W6        29.92R
IMPERIAL       CLEAR     66  45  46 SW3       29.91R
BLYTHE         CLEAR     75  27  17 N17       29.97R
NEEDLES        CLEAR     71  28  20 N18       30.04R
$$

NVZ020-UTZ003-021400-
SOUTHERN NEVADA-UTAH

CITY           SKY/WX    TMP DP  RH WIND       PRES   REMARKS
LAS VEGAS      CLEAR     61  31  32 W3        30.12S
SALT LAKE CITY PTCLDY    43  34  70 SE9       30.27R
$$

NMZ009-TXZ055-021400-
NEW MEXICO-WEST TEXAS

CITY           SKY/WX    TMP DP  RH WIND       PRES   REMARKS
ALBUQUERQUE    CLEAR     53  24  32 NW9       30.17R
EL PASO        CLEAR     69  32  25 NW10      30.02R
$$


........................KEY........................
SKY/WX - SKY CONDITION/WEATHER
TMP    - TEMPERATURE IN FAHRENHEIT
DP     - DEW POINT IN FAHRENHEIT
RH     - RELATIVE HUMIDITY IN PERCENT
WIND   - DIRECTION AND SPEED IN MILES PER HOUR (MPH)
VRB    - VARIABLE WIND DIRECTION
PRES   - MEAN SEA LEVEL PRESSURE IN INCHES OF MERCURY
         F - FALLING PRESSURE   R - RISING PRESSURE
         S - STEADY PRESSURE
VSB    - VISIBILITY IN MILES
HX     - HEAT INDEX IN FAHRENHEIT
WCI    - WIND CHILL INDEX IN FAHRENHEIT
TC     - TEMPERATURE IN CELSIUS WHICH IS ALSO KNOWN AS
         TEMPERATURE IN CENTIGRADE
AFB    - AIR FORCE BASE
         LUKE AFB IS LUKE AIR FORCE BASE
         DAVIS-MONTHAN IS DAVIS-MONTHAN AIR FORCE BASE
NAS    - NAVAL AIR STATION
         EL CENTRO NAS IS EL CENTRO NAVAL AIR STATION
N/A    - NOT AVAILABLE


USA.gov is the U.S. government's official web portal to all federal, state and local government web resources and services.